Reflectivity
-20 -18 4 15 12 -18 -16 -16 -12 14 23 26 23 8 -20 -20 -20 -20 -20 -20 -20 -20 -8 18 -20 -20 -20 -20 -20 -4 12 -13 -9 -2 -20 -19 -20 -20 -20 -20 -20 -20 -19 -20
18 -5 12 5 9 -20 -20 12 4 6 23 15 10 4 -20 -20 -18 -12 8 -20 -20 -20 -9 -20 -20 7 18 -9 18 22 -8 -20 -18 -20 -20 -20 -20 -20 -20 -20 -20 -20 -20 -20
14 8 -16 -4 -6 7 7 2 5 25 29 14 11 4 0 -4 -20 -18 -20 8 -19 -18 -3 -19 -20 -20 -10 -4 -16 8 -4 -20 -20 -20 -20 -20 -16 -20 -20 -20 -20 -20 -20 -20
14 8 -20 -20 17 -9 -1 -20 10 -20 7 12 10 -7 1 8 -4 -1 -20 -20 -20 16 -1 -20 -20 -20 -19 -12 8 -20 -20 -20 -20 -20 -20 -20 -20 -20 -20 -20 -20 -20 -20 -20
20 13 5 -20 16 -2 2 17 -20 -20 -20 -20 9 11 -20 9 -6 -20 -20 -20 -20 4 -16 -11 -17 -20 -15 -20 -20 -20 -20 -20 -20 -20 -20 -20 -20 -20 -20 -20 -20 -20 -20 -20
21 8 3 -18 21 2 0 -20 -20 -20 -18 -15 12 1 -14 1 -20 -20 8 -20 -20 -20 -20 -20 -20 -20 -20 -20 -20 -20 -20 -20 -20 -20 -20 -20 -20 -20 -20 -20 -20 -4 -8 -1
12 6 7 -20 -8 4 20 -13 -20 -20 -2 -20 -14 -20 -17 -20 -19 -13 -19 -20 -20 -20 -20 -20 -20 -20 -20 -20 -20 -20 -20 -20 -20 -20 -20 -20 -4 -10 -4 -20 -20 -11 -20 -16
12 3 -20 -20 -4 -9 20 -18 -20 -20 -18 -20 -20 -20 -20 -20 -20 -20 -20 -20 -20 -20 -20 -20 -20 -20 -20 -3 -20 -20 -20 -20 -20 -20 -20 -20 -17 -9 -20 -4 -4 -7 -15 -14
14 8 -2 -20 -2 -19 23 -13 -13 -17 -16 -20 -19 -20 -20 -20 -20 -20 -20 -20 -20 -20 -20 -20 -20 -20 -20 1 2 -20 -20 -20 -20 -3 4 0 6 -20 -20 2 6 -20 -4 -3
-20 -16 -10 -20 -1 -12 27 -14 -7 -20 -20 -18 -20 -20 -20 -20 -20 -20 -20 -20 -20 -20 -20 -20 -20 -20 -20 -6 7 8 -1 -10 4 6 8 7 -20 -20 -20 9 6 -7 -4 -1
-20 -17 -20 -18 12 -6 8 -4 -20 -20 -20 -20 -20 -20 -20 -20 -20 -20 -20 -20 -20 -20 -20 -20 -20 -1 2 -9 -9 13 8 7 3 5 6 11 -20 -19 -6 2 4 -1 -3 3
-20 -18 -20 -20 -20 9 -12 -14 -9 -20 -20 -20 -20 -20 -20 -20 -20 -20 -20 -20 -20 -20 -20 -20 -20 -20 -4 0 6 -3 5 -10 12 -11 5 -12 -4 -1 -2 3 3 4 9 14
-20 -14 -7 -3 -5 -20 -1 -20 -13 -20 -20 -20 -20 -20 -20 -20 -20 -20 -20 -20 -20 -20 -20 -20 -20 -4 -16 7 4 -4 -20 -4 2 -14 4 1 -0 -3 -1 2 -3 10 5 3
-20 -8 -12 -20 -20 -8 -13 -20 -20 -20 -20 -20 -20 -20 -20 -20 -20 -20 -20 -20 -20 -20 -20 -20 -20 -20 -17 -6 -8 -5 -17 -10 -13 3 4 -1 1 2 -2 -3 -4 5 10 0
-13 -18 -20 -15 8 -7 -20 -20 -20 -20 -20 -20 -20 -20 -20 -20 -20 -20 -20 -20 -20 -20 -20 -20 -20 -20 -6 -0 -13 -16 -20 -18 -1 -7 -9 2 2 3 2 -1 -3 -4 -20 -20
-19 -9 -19 -19 -20 -20 -20 22 -20 -20 -20 -20 -20 -20 -20 -20 -20 -20 -20 -20 -20 -20 -20 -20 -20 -20 -15 1 1 -12 -20 -20 -20 -7 2 -20 1 0 -2 -20 -13 -19 -20 -20
-3 -20 -20 -16 -20 -20 -20 -20 -20 -20 -20 -20 -20 -20 -20 -20 -20 -20 -20 -20 -20 -20 -20 -20 -20 -20 -17 -0 -1 -20 -9 -1 -14 -20 -20 -2 -13 -17 -20 -20 -20 -18 -20 -20
-20 -20 -20 -20 -20 -20 -20 -20 -20 -20 -20 -20 -20 1 -20 -20 -20 -12 -20 -20 -20 -19 -20 -20 -20 -20 -8 -20 -20 -10 -6 -20 -1 2 -7 -20 -20 -20 -20 -20 -20 -20 -20 -20
-20 -20 -20 -20 -20 -20 -20 -20 -20 -20 -20 -20 -20 -20 4 -20 -15 -10 -5 -16 -11 -17 1 -20 -20 2 -8 -17 -17 -20 -11 -8 -10 -6 -20 -20 -20 -20 -20 -20 -20 -20 -20 -20
-20 -20 -20 -20 -20 -20 -20 -20 -20 -20 -20 -20 -20 -20 1 -12 -8 -15 -1 -13 2 2 0 -19 1 4 -20 -20 -20 -3 -15 1 -15 -5 -15 -20 -20 -20 -20 -20 -20 -20 -20 -20
-20 -20 -6 -20 -20 -20 -20 -20 -20 -20 -20 -20 -20 -13 -9 -20 5 4 -19 -5 -2 -13 9 2 9 -1 -15 -20 -17 -20 -3 -1 -1 -5 -15 -20 -20 -20 -20 -20 -20 -20 -20 -20
-20 -20 -20 -20 -20 -20 -20 -20 -20 -20 -20 -20 -3 -3 5 -12 -20 -12 -20 -9 -13 14 -19 6 9 12 -1 -4 -12 -0 -17 -18 -20 -20 -20 -20 -20 -20 -20 -20 -20 -20 -20 -20
-20 -20 -20 -20 -20 -20 -20 -20 -15 -1 -6 -8 -20 -16 -20 -20 -10 -1 -4 -14 16 -17 12 19 5 -16 -18 -19 -20 -20 -20 -20 -20 -20 -20 -20 -20 -20 -20 -20 -20 -20 -20 -20
-20 -20 -20 -20 -20 -19 -15 -2 1 0 -2 -20 -20 -20 14 -20 -9 -20 -4 -18 -20 2 9 20 -19 -20 -20 -19 -19 -20 -20 -20 -20 -20 -20 -20 -20 -20 -20 -20 -20 -20 -20 -20
-20 -20 -3 4 -4 -8 1 -1 5 -20 -20 -20 -20 -20 -2 -20 -20 -19 -20 -7 0 8 14 -13 -20 -20 -20 -20 -20 -20 -20 -20 -20 -20 -20 -20 -20 -20 -20 -20 -20 -20 -20 -20
-20 -13 8 -14 13 15 14 12 5 2 -14 -17 -20 -20 -20 -20 -15 -16 -14 2 7 4 -2 -16 -5 -9 -20 -20 -20 -20 -20 -20 -20 -20 -20 -20 -20 -20 -20 -20 -20 -20 -20 -20
-14 10 -17 1 2 6 0 13 1 -19 5 -2 -20 -20 -20 -3 -14 -20 -5 1 0 -20 -18 -15 -20 -20 -20 -20 -20 -20 -20 -20 -20 -20 -20 -20 -20 -20 -20 -20 -20 -20 -20 -20
Wind_Speed
21 20 18 16 16 13 3 4 4 7 5 4 3 8 5 1 4 6 3 2 2 4 5 5 6 5 3 3 5 6 5 3 4 2 3 2 3 2 4 5 8 4 7 6
23 21 19 19 18 15 4 4 4 2 2 6 8 6 7 8 6 8 6 4 3 1 6 2 11 4 4 1 5 5 2 2 3 3 2 1 2 1 2 3 1 9 10 2
23 22 19 19 20 17 4 5 5 4 4 1 5 10 11 10 8 6 4 4 3 3 6 2 10 10 4 4 4 6 2 3 6 5 4 4 5 7 4 3 4 4 9 13
22 23 20 19 19 16 5 4 4 7 9 11 10 9 10 15 9 6 7 6 5 4 5 4 6 6 10 5 0 3 1 4 1 4 4 1 2 6 7 10 10 7 9 11
23 23 21 19 18 14 4 4 4 5 3 12 14 9 9 13 9 8 9 4 6 11 4 3 8 10 7 5 3 3 3 4 1 2 3 4 8 9 10 11 13 14 15 16
25 22 19 18 18 14 5 2 1 4 9 13 11 12 9 14 10 2 4 6 6 9 9 9 9 8 6 6 6 5 4 5 4 2 2 1 8 5 10 9 7 7 11 13
23 21 18 17 18 16 3 1 2 3 6 12 12 13 12 12 11 6 8 6 5 5 9 10 9 9 8 6 7 3 6 6 3 3 4 5 8 6 7 4 9 5 8 12
21 20 18 17 17 17 5 1 4 3 4 7 10 10 9 9 10 10 8 6 4 6 6 6 8 5 6 6 5 5 4 4 3 3 5 4 5 4 4 4 2 7 9 10
19 18 17 16 15 14 3 5 4 2 2 4 4 9 13 10 7 7 5 5 2 2 1 3 5 4 5 7 6 4 6 2 3 3 4 4 6 7 4 1 7 6 7 8
17 17 15 14 13 16 7 3 4 2 3 4 2 5 7 4 3 4 5 5 4 1 3 3 2 4 1 6 6 6 6 3 6 5 4 6 2 9 3 7 6 7 7 9
16 14 12 12 14 19 9 2 2 2 3 5 4 2 4 4 4 6 6 5 3 3 3 3 3 3 3 4 3 1 4 5 4 3 4 3 11 1 5 5 6 6 8 9
13 12 9 10 12 16 6 3 3 2 3 6 6 9 8 5 4 5 3 3 4 2 2 2 3 3 3 4 4 3 3 3 2 5 5 5 7 6 4 5 6 7 7 8
12 9 9 9 10 12 4 4 3 4 5 6 4 6 7 9 6 4 2 3 4 4 2 2 2 4 2 4 4 5 5 5 3 6 5 7 6 6 7 7 8 8 9 8
11 10 9 8 10 11 5 4 1 0 4 4 6 4 5 8 7 8 7 10 6 6 1 2 2 3 3 3 5 1 4 5 6 5 8 8 6 6 7 9 9 10 9 9
12 13 14 16 16 15 10 6 4 3 2 5 6 6 7 6 9 12 10 7 5 2 2 2 3 3 3 3 2 4 1 3 3 3 8 6 8 8 8 8 9 9 10 10
14 15 10 7 6 5 1 4 4 6 3 5 5 2 3 5 9 11 10 5 4 2 2 3 3 3 2 3 2 3 4 2 5 5 6 13 12 10 9 10 10 9 10 9
13 12 11 11 9 5 5 3 3 7 3 4 5 5 3 1 2 3 3 5 3 3 2 2 1 3 2 1 2 9 7 7 10 14 15 12 12 8 10 11 11 11 10 9
16 18 16 14 13 12 5 6 7 3 4 2 4 4 5 1 2 3 2 2 1 3 2 2 2 4 1 2 8 11 11 10 11 8 2 11 14 13 12 11 10 10 10 9
16 13 8 4 5 3 2 9 4 3 3 4 2 6 4 2 2 2 2 2 2 0 1 2 3 3 3 1 13 12 12 10 11 7 11 15 14 12 11 10 9 10 9 8
9 3 3 3 2 5 6 1 1 4 4 3 3 1 5 3 2 3 2 1 1 2 3 3 2 1 3 4 9 11 11 9 14 14 13 13 13 11 10 9 7 8 9 9
2 3 3 2 2 1 3 3 3 1 3 2 3 2 7 2 3 3 1 2 1 2 4 3 3 3 5 5 9 10 10 11 11 6 10 10 12 12 11 10 10 9 10 9
3 6 4 1 1 2 4 3 2 0 3 3 4 5 3 4 1 2 2 1 1 2 4 3 4 4 8 9 10 8 9 10 8 8 10 10 11 11 11 11 11 10 9 8
2 2 4 2 3 4 2 5 3 4 4 4 5 4 2 4 1 3 2 2 1 2 4 3 3 7 8 9 9 9 8 9 11 11 11 12 13 12 11 12 10 11 9 7
4 3 5 3 2 2 1 3 4 3 3 6 4 3 1 1 2 1 2 2 1 3 3 1 4 10 10 9 8 10 10 9 11 11 12 12 12 11 10 9 10 10 9 7
3 1 4 3 3 2 3 2 3 3 3 3 4 3 1 2 3 1 1 3 4 3 1 3 4 11 11 10 9 10 10 9 9 9 10 11 11 11 10 7 8 9 8 7
3 4 4 2 6 6 4 5 5 2 2 2 2 3 2 2 3 3 4 2 2 2 2 3 8 11 10 9 8 8 8 9 9 8 10 11 10 10 10 9 8 7 8 7
3 3 3 5 6 5 3 2 3 1 1 2 1 2 2 3 2 3 2 2 2 2 3 4 8 11 10 9 9 9 9 10 10 10 10 11 10 11 10 10 8 7 6 4
Wind_Direction
172 168 166 162 166 164 222 173 137 137 162 171 208 212 199 181 202 226 201 107 170 142 280 188 134 187 42 7 43 129 204 278 142 96 27 287 285 292 276 255 214 262 300 292
175 172 175 174 172 181 171 123 118 121 208 197 200 210 205 199 225 206 206 144 209 210 207 155 127 151 317 197 181 214 199 141 180 207 188 44 243 114 126 137 245 254 263 266
175 171 178 181 179 185 241 182 146 152 209 223 229 196 201 199 215 196 201 154 119 259 166 229 149 147 146 158 139 56 237 178 276 260 53 95 174 172 162 167 228 291 244 293
175 172 173 180 184 178 232 202 188 168 186 198 207 202 202 194 176 192 198 153 173 205 177 123 138 131 131 103 62 66 20 180 190 85 107 130 194 213 220 239 247 254 292 301
176 172 169 174 176 171 242 167 178 178 201 182 196 180 214 199 172 179 183 210 199 175 218 230 176 155 172 165 118 100 5 125 156 228 244 258 265 255 251 250 260 266 273 276
169 168 169 168 176 170 211 185 206 241 142 185 187 197 221 199 165 132 193 237 159 138 105 87 88 85 90 117 142 123 135 140 164 184 137 255 251 280 264 244 250 292 285 341
163 165 171 171 182 201 292 244 252 202 170 181 197 189 206 180 201 163 133 134 140 106 119 110 95 83 79 83 74 106 154 153 172 142 184 223 76 40 47 360 308 346 320 337
160 162 174 177 192 206 234 250 262 247 149 183 175 182 146 129 133 119 115 72 64 156 156 136 129 125 140 98 75 181 191 161 145 211 215 83 157 43 359 352 326 23 341 328
168 164 174 182 195 207 194 252 262 281 177 125 163 151 162 150 144 121 101 82 102 161 126 174 185 172 140 158 129 96 171 226 243 181 252 220 71 6 341 193 232 24 337 305
160 165 177 186 195 186 199 213 215 238 106 84 181 138 149 133 131 129 137 149 152 246 151 147 157 136 332 151 169 167 141 158 217 202 259 105 2 326 352 230 48 18 15 342
161 164 172 180 175 179 209 103 173 285 106 70 23 50 129 127 173 164 132 166 176 141 163 179 133 182 102 129 33 53 182 188 190 192 232 165 358 147 312 12 63 74 67 59
156 159 163 163 166 178 187 140 150 186 55 85 55 67 35 14 31 131 140 61 102 95 129 175 136 148 160 148 131 125 184 331 58 350 54 75 44 64 36 36 86 84 91 80
148 151 147 144 165 166 179 123 135 151 115 97 99 42 21 29 18 333 158 134 118 144 0 95 80 118 218 158 118 141 144 173 100 187 100 99 91 81 74 74 84 84 80 85
136 124 114 134 131 138 123 117 24 246 110 96 73 14 41 356 64 75 67 108 104 108 190 87 99 109 289 94 95 290 47 167 140 88 123 119 95 98 106 97 93 93 91 93
125 116 107 108 112 110 100 89 47 13 345 120 114 109 34 49 74 78 85 100 118 128 125 101 82 98 142 102 169 115 249 140 198 88 143 87 111 126 126 118 112 112 112 107
129 127 119 102 125 161 150 76 48 21 349 114 118 90 60 72 79 75 68 60 58 61 65 76 99 79 265 158 132 125 97 70 138 140 105 104 113 110 116 119 119 119 108 105
124 111 90 84 113 77 56 61 12 342 311 102 121 125 98 1 71 69 64 52 54 16 92 82 92 129 265 117 146 152 126 115 120 124 120 118 138 127 133 120 116 116 112 111
120 117 100 86 95 116 70 22 13 335 97 76 113 103 162 315 135 112 355 71 66 37 61 149 164 149 241 192 129 141 138 133 142 137 109 123 125 129 127 130 137 131 122 119
118 113 88 72 40 58 66 330 316 25 30 104 108 148 145 146 93 87 136 317 104 30 189 137 235 149 215 148 155 161 163 167 162 132 129 134 136 137 139 139 139 127 122 118
121 60 44 76 54 327 293 223 40 33 33 36 86 149 119 178 193 125 161 273 134 190 91 131 263 244 93 129 160 167 165 158 145 146 154 150 147 147 144 132 124 123 119 117
57 78 71 82 326 242 33 71 45 27 96 63 85 112 137 164 171 126 293 138 140 229 115 241 176 225 174 162 149 147 144 152 151 167 164 163 153 146 139 129 120 120 120 115
90 100 105 141 50 72 81 62 104 106 103 122 142 116 95 118 228 146 183 131 185 242 144 207 225 109 133 137 138 132 141 151 144 137 137 136 132 131 129 128 123 116 111 111
120 90 71 13 16 78 103 145 132 141 143 156 155 124 76 149 128 86 139 188 93 138 219 221 49 137 140 137 133 122 120 120 123 115 112 116 115 116 127 124 121 125 118 125
51 64 81 21 79 85 87 87 96 82 123 135 121 94 74 105 96 76 186 87 241 248 253 149 141 166 150 143 136 133 124 121 123 121 118 117 116 113 114 126 132 131 133 125
77 77 75 81 83 81 86 83 114 88 125 146 126 110 104 88 112 137 133 179 219 248 4 69 131 157 153 148 143 136 133 127 118 121 120 122 127 124 120 123 120 118 126 144
75 54 121 90 122 106 100 81 78 75 121 186 78 110 123 110 115 169 211 234 219 91 63 95 138 152 151 142 137 129 125 127 127 129 135 134 134 137 128 122 122 137 141 131
50 74 44 64 58 70 70 42 55 330 262 86 78 111 79 122 189 201 208 261 33 66 114 127 148 155 144 132 128 128 130 132 136 138 142 134 127 133 135 132 140 141 132 133